Wind_Speed
21 21 21 20 20 19 19 18 18 18 18 18 17 17 17 17 18 18 19 19 20 20 22 24 26 29 30 32 32 32 31 29 26 24 22 21 19 18 18 17 18 18 19
22 22 22 21 21 20 19 18 18 19 19 19 19 19 18 18 19 19 20 20 20 19 20 21 22 26 29 31 32 32 32 31 29 27 25 24 23 22 21 20 19 19 19
22 23 23 23 23 22 21 20 20 20 20 21 21 20 20 20 20 20 21 21 21 20 20 19 20 23 26 30 31 32 33 33 31 29 28 27 25 25 24 23 22 21 20
24 23 23 24 23 23 22 22 22 22 22 22 22 22 22 22 22 22 22 22 22 21 21 21 21 22 24 26 28 30 32 33 32 31 29 28 28 27 27 28 26 24 23
24 24 24 24 23 23 23 23 23 23 23 23 23 22 23 23 23 23 23 23 23 23 23 23 22 21 23 24 26 28 30 31 31 31 30 30 30 30 29 30 29 28 26
24 24 24 24 23 23 23 24 23 23 24 24 24 23 23 23 24 24 23 23 23 23 23 23 23 22 23 24 25 26 28 30 31 31 31 31 30 31 30 29 29 29 29
24 24 24 24 24 24 24 24 24 24 24 24 24 24 23 23 24 24 24 24 24 24 23 23 23 23 22 23 24 25 26 28 30 31 31 31 31 30 31 30 30 30 31
22 22 23 23 24 24 24 24 25 24 24 24 24 24 24 23 24 24 25 25 25 25 24 24 24 23 23 22 23 25 25 26 27 28 30 31 31 31 31 31 31 31 30
21 22 22 23 23 24 24 24 25 24 24 24 24 25 24 24 25 25 25 26 26 25 25 24 24 24 24 24 23 24 24 25 26 27 28 30 32 32 32 32 32 32 30
20 21 21 22 22 23 23 23 23 23 23 24 24 25 25 24 25 26 26 26 26 27 26 26 25 25 24 24 24 23 24 25 25 25 26 28 30 31 32 32 32 33 32
19 20 21 21 21 21 21 21 21 22 23 23 24 25 25 25 26 27 27 27 27 27 27 26 25 25 25 24 24 23 23 24 25 25 25 26 28 29 30 31 32 33 33
19 20 20 20 19 18 18 19 20 21 21 22 24 25 27 27 27 28 28 28 27 26 26 25 25 24 24 23 23 23 23 23 24 24 25 25 26 27 28 30 31 33 35
18 18 18 17 17 17 17 18 19 19 21 22 23 25 26 27 27 28 29 28 27 26 25 24 23 23 23 22 22 22 22 23 23 23 24 25 26 26 27 28 29 31 32
17 17 16 16 16 16 16 17 17 18 19 20 20 21 22 23 25 25 27 27 26 26 25 24 23 22 21 21 21 21 21 22 22 21 22 23 23 24 26 26 27 28 31
16 16 15 16 16 16 16 16 16 17 17 18 18 18 18 18 18 20 21 22 24 24 23 22 22 22 22 21 21 21 21 21 21 21 21 21 22 22 23 24 26 27 29
16 16 16 16 15 15 15 15 15 16 16 16 15 14 11 10 11 13 15 16 17 18 19 19 19 20 20 20 21 21 21 21 21 21 22 22 22 22 23 24 26 27 29
16 16 16 15 15 14 14 14 14 13 14 14 13 10 7 4 4 6 8 10 11 13 14 15 16 17 18 18 18 19 20 20 21 21 22 22 23 24 25 26 27 28 29
16 15 15 14 13 13 12 12 12 12 11 11 11 9 6 4 2 1 3 4 6 8 9 11 12 13 15 16 17 18 18 19 20 21 22 23 24 25 26 27 28 29 30
15 14 13 12 11 11 11 11 11 10 10 10 10 9 7 6 5 4 3 2 2 3 5 7 9 10 11 13 15 16 18 19 20 22 23 25 26 26 27 28 29 30 31
14 13 12 11 11 11 10 10 10 10 10 10 10 9 8 7 6 5 4 3 1 1 3 5 6 8 10 12 13 15 17 19 20 22 24 25 26 27 28 29 30 31 32
14 13 13 12 12 11 11 11 11 11 11 11 11 10 10 9 8 7 6 5 4 4 3 4 5 7 9 11 12 14 16 17 19 21 23 24 25 27 28 29 30 31 32
13 14 14 14 14 14 14 14 13 13 13 13 13 13 12 11 10 9 9 8 7 7 6 6 6 7 8 10 11 13 14 16 17 19 20 22 24 25 26 27 29 30 30
14 14 14 15 15 15 15 15 15 15 15 15 15 15 15 14 13 12 11 10 10 9 8 8 8 8 9 9 10 11 13 14 16 17 19 21 22 23 24 25 25 26 27
13 13 13 13 13 13 14 14 14 14 15 15 15 15 15 15 15 15 14 13 13 12 12 12 11 11 11 11 12 12 13 14 15 17 18 19 20 21 22 23 24 24 25
11 12 12 12 12 12 12 13 13 14 15 15 15 16 16 16 16 16 16 16 15 15 15 15 14 14 14 14 14 15 15 16 16 18 19 20 21 21 21 22 22 23 23
9 10 10 10 10 10 11 12 12 13 14 14 15 15 16 16 17 17 16 16 16 16 16 16 16 16 17 17 17 18 18 19 20 21 22 22 22 22 22 22 22 22 22
Wind_Direction
292 296 299 302 304 303 300 295 292 289 286 284 281 277 273 269 266 265 266 266 263 260 259 257 251 245 240 237 234 233 233 234 236 239 240 242 244 247 247 248 251 253 254
292 294 298 301 303 302 300 297 293 289 286 283 281 277 273 270 267 265 266 268 264 264 263 260 253 245 242 238 236 236 236 235 237 240 240 241 242 246 249 249 251 254 255
292 293 296 300 300 298 297 296 293 290 287 284 281 277 273 270 267 267 266 267 266 264 261 260 258 251 244 239 238 239 239 239 239 241 242 243 243 244 248 250 251 252 256
292 295 297 299 299 296 294 293 292 290 288 284 281 278 275 272 269 268 267 266 266 266 263 260 261 255 246 243 242 241 241 240 240 242 243 245 246 246 248 251 252 253 254
292 295 298 298 298 296 293 291 291 289 287 285 282 278 276 274 271 268 266 266 267 267 266 263 262 259 249 246 245 244 243 241 241 242 243 246 249 250 250 250 252 254 254
291 295 297 297 297 296 294 292 291 289 286 285 283 280 277 274 271 269 267 266 267 267 266 265 264 261 255 250 248 249 247 244 242 243 244 245 249 252 252 251 253 254 254
290 295 296 296 296 296 295 294 291 288 286 284 283 281 277 274 271 268 267 266 265 264 265 265 265 263 261 254 250 249 250 248 245 245 245 245 247 250 254 255 256 255 254
294 296 297 297 296 295 294 292 290 288 286 284 281 278 277 274 271 269 267 266 265 265 264 263 263 262 262 260 256 253 252 251 249 249 247 246 247 249 254 257 257 256 254
297 298 298 297 296 295 293 291 289 287 285 282 279 276 274 272 271 268 266 265 264 264 263 263 261 261 259 258 257 256 254 253 252 251 250 248 248 249 251 253 255 256 255
300 301 300 299 298 297 294 292 290 288 286 282 278 275 272 270 268 266 265 264 263 262 262 261 259 259 258 258 256 256 255 254 252 251 251 249 247 248 249 250 250 252 253
304 303 302 301 300 299 296 293 292 290 288 284 280 276 272 269 266 264 263 262 261 261 260 260 259 258 258 258 256 255 255 253 252 252 252 253 250 249 249 250 250 251 252
306 305 305 304 303 301 299 297 296 294 291 288 284 279 273 268 263 261 261 260 259 260 258 257 258 257 257 256 255 253 253 252 253 253 254 255 255 254 253 254 254 253 253
309 308 308 307 307 306 305 304 302 299 297 293 289 284 276 269 263 259 258 257 255 257 256 256 255 255 253 252 253 251 250 251 253 253 254 256 257 258 258 258 256 254 253
313 312 312 313 313 312 311 311 310 308 305 301 297 291 282 272 264 259 256 253 252 253 254 253 252 251 250 250 252 250 250 250 253 255 257 258 259 259 259 259 258 257 254
319 318 317 316 316 315 315 316 317 319 318 314 310 303 292 278 266 257 253 249 249 249 249 249 248 249 249 249 248 248 248 250 252 256 260 261 260 259 259 259 259 258 255
323 321 319 317 316 316 317 320 322 325 327 329 327 322 307 286 267 254 246 242 242 243 244 245 245 245 245 245 245 246 248 251 253 256 259 261 261 262 263 261 259 258 257
325 323 321 319 317 318 321 324 329 333 338 343 345 345 341 319 275 244 236 235 238 240 242 243 242 242 242 243 245 246 249 253 256 258 260 262 264 264 265 264 262 261 261
330 326 324 322 322 324 328 333 339 345 349 355 1 6 14 27 54 161 200 215 226 232 237 236 238 240 241 243 247 250 253 256 259 261 263 265 267 268 268 268 267 266 266
339 337 335 336 337 339 342 348 354 358 4 10 17 24 33 44 58 78 98 125 192 225 235 235 240 245 250 253 255 257 259 261 264 266 267 268 269 269 270 270 269 268 268
352 353 354 355 356 358 2 8 13 17 22 26 31 36 43 50 56 62 66 68 61 276 263 259 261 265 267 267 268 269 270 271 272 273 274 273 273 273 273 272 271 271 270
4 8 11 13 16 19 22 25 29 33 36 38 40 43 47 50 54 54 52 45 31 12 345 318 303 294 290 286 284 283 283 283 282 282 281 280 279 278 276 275 274 274 273
15 20 24 27 30 33 35 39 42 44 46 48 48 49 50 51 52 51 46 38 29 19 8 353 338 327 318 310 303 299 296 295 293 292 290 288 286 285 283 281 279 277 276
23 25 28 31 34 38 41 44 47 48 50 51 51 50 50 50 50 49 47 43 39 33 27 19 11 1 350 340 330 322 316 313 309 305 302 299 296 293 290 287 285 282 281
25 28 31 34 38 42 46 48 49 49 50 52 53 53 53 54 53 53 52 50 48 44 39 33 26 18 11 5 357 348 341 333 327 322 317 313 308 303 298 294 290 286 284
26 31 35 38 41 45 49 51 52 53 54 56 57 57 57 56 56 55 53 51 47 43 39 34 29 24 19 13 7 1 354 348 341 335 330 324 319 313 308 303 298 293 289
26 31 35 38 42 47 50 52 53 53 54 56 56 56 55 54 52 50 48 45 41 37 34 31 27 24 19 15 10 6 1 356 351 346 342 337 331 324 317 310 304 298 293
Height
5795 5794 5793 5791 5789 5788 5786 5785 5784 5783 5782 5781 5781 5781 5781 5781 5782 5783 5784 5785 5785 5786 5788 5789 5790 5793 5797 5801 5805 5809 5812 5816 5819 5822 5824 5826 5828 5830 5832 5834 5836 5837 5839
5790 5789 5788 5786 5785 5783 5782 5780 5779 5778 5778 5777 5777 5776 5777 5777 5777 5778 5779 5780 5780 5781 5782 5783 5784 5787 5790 5794 5797 5801 5805 5809 5812 5815 5818 5820 5823 5825 5827 5829 5831 5832 5834
5785 5783 5782 5781 5780 5778 5777 5776 5775 5774 5773 5772 5772 5772 5772 5772 5773 5773 5774 5775 5776 5777 5778 5778 5779 5781 5784 5787 5791 5794 5798 5801 5805 5808 5811 5814 5817 5819 5821 5823 5825 5827 5829
5778 5777 5777 5776 5774 5773 5771 5770 5769 5768 5767 5766 5766 5766 5766 5767 5767 5768 5768 5769 5770 5771 5772 5774 5775 5776 5778 5780 5784 5787 5790 5794 5797 5801 5803 5806 5809 5812 5814 5816 5818 5821 5823
5773 5773 5772 5770 5768 5767 5765 5764 5763 5762 5761 5760 5760 5760 5760 5760 5761 5762 5763 5763 5764 5765 5766 5768 5769 5770 5772 5774 5777 5780 5783 5786 5790 5793 5796 5798 5801 5804 5807 5809 5811 5814 5817
5768 5767 5766 5764 5762 5761 5759 5758 5757 5756 5755 5754 5753 5753 5754 5754 5754 5755 5756 5757 5759 5760 5761 5762 5763 5765 5766 5768 5770 5773 5776 5779 5782 5785 5788 5791 5793 5795 5798 5801 5803 5806 5808
5762 5761 5760 5758 5756 5755 5753 5752 5750 5749 5748 5747 5747 5746 5747 5747 5747 5748 5749 5751 5752 5754 5755 5756 5758 5759 5760 5761 5764 5766 5769 5771 5774 5777 5780 5783 5785 5787 5790 5793 5795 5797 5799
5757 5756 5754 5752 5750 5749 5747 5745 5744 5742 5741 5741 5740 5740 5740 5740 5741 5741 5742 5744 5745 5747 5748 5750 5752 5753 5754 5756 5758 5760 5762 5764 5766 5769 5772 5775 5777 5779 5781 5783 5785 5787 5790
5753 5751 5749 5747 5745 5743 5741 5739 5737 5736 5735 5734 5733 5732 5733 5734 5734 5735 5736 5737 5738 5739 5741 5743 5745 5746 5748 5750 5751 5753 5755 5757 5759 5761 5763 5766 5768 5771 5773 5775 5776 5778 5781
5748 5746 5744 5741 5739 5737 5735 5732 5730 5729 5728 5727 5726 5725 5725 5726 5727 5727 5728 5730 5731 5732 5734 5736 5738 5739 5741 5743 5745 5746 5748 5749 5751 5753 5755 5757 5760 5762 5764 5766 5768 5769 5771
5743 5741 5739 5736 5734 5731 5729 5727 5725 5723 5721 5720 5719 5718 5718 5719 5719 5719 5721 5722 5724 5725 5727 5729 5731 5732 5734 5736 5738 5740 5741 5743 5745 5746 5748 5750 5751 5753 5755 5757 5759 5761 5763
5739 5736 5734 5731 5729 5726 5724 5722 5719 5717 5715 5713 5712 5710 5710 5710 5711 5711 5712 5714 5716 5718 5719 5722 5724 5725 5727 5729 5731 5733 5734 5736 5738 5739 5741 5742 5744 5745 5747 5748 5750 5752 5753
5734 5732 5730 5727 5725 5722 5720 5717 5714 5712 5709 5707 5704 5702 5701 5701 5701 5702 5704 5706 5708 5710 5713 5715 5717 5719 5721 5723 5724 5726 5728 5729 5731 5732 5734 5735 5736 5737 5738 5739 5741 5742 5744
5730 5728 5726 5723 5721 5718 5716 5713 5710 5707 5704 5700 5697 5694 5692 5691 5692 5694 5696 5698 5701 5704 5706 5708 5711 5713 5715 5717 5718 5720 5721 5723 5724 5725 5726 5727 5728 5729 5730 5731 5732 5733 5734
5727 5725 5722 5720 5717 5715 5712 5709 5706 5703 5699 5695 5691 5688 5685 5684 5685 5686 5688 5691 5694 5697 5700 5702 5705 5707 5709 5711 5712 5714 5716 5717 5718 5719 5720 5720 5721 5721 5722 5723 5723 5724 5725
5724 5722 5719 5716 5714 5711 5708 5706 5702 5699 5696 5692 5687 5684 5681 5680 5680 5681 5683 5686 5689 5691 5694 5697 5699 5701 5703 5705 5706 5708 5709 5711 5711 5712 5713 5714 5714 5714 5714 5715 5715 5716 5716
5721 5719 5716 5714 5711 5708 5706 5703 5700 5697 5694 5690 5686 5683 5680 5678 5678 5679 5681 5683 5685 5687 5689 5691 5693 5696 5697 5699 5701 5702 5704 5704 5705 5706 5706 5706 5707 5707 5707 5707 5707 5707 5707
5719 5717 5714 5711 5709 5706 5704 5701 5698 5696 5693 5690 5687 5684 5681 5680 5680 5680 5681 5682 5684 5685 5687 5688 5690 5691 5693 5695 5696 5697 5698 5699 5699 5699 5699 5699 5699 5699 5698 5698 5698 5698 5698
5718 5715 5713 5710 5707 5705 5702 5700 5697 5695 5693 5690 5688 5686 5684 5683 5682 5682 5682 5683 5684 5685 5685 5686 5688 5689 5690 5691 5691 5692 5693 5693 5693 5693 5693 5692 5691 5691 5690 5690 5689 5688 5688
5718 5715 5712 5710 5707 5705 5702 5700 5698 5695 5693 5691 5689 5688 5686 5685 5684 5684 5684 5684 5684 5685 5685 5685 5686 5686 5687 5687 5687 5687 5687 5687 5687 5686 5685 5684 5683 5682 5681 5680 5679 5678 5678
5719 5716 5713 5711 5708 5706 5703 5701 5699 5697 5695 5693 5692 5690 5689 5688 5687 5686 5686 5686 5685 5685 5685 5685 5685 5684 5684 5683 5683 5683 5682 5681 5680 5679 5678 5676 5675 5673 5672 5671 5669 5668 5667
5721 5718 5716 5713 5711 5708 5706 5704 5702 5700 5698 5696 5695 5693 5692 5690 5689 5688 5687 5687 5686 5685 5685 5684 5684 5683 5682 5681 5680 5679 5678 5676 5675 5673 5671 5669 5667 5665 5663 5661 5659 5657 5656
5723 5721 5719 5717 5714 5712 5710 5708 5706 5704 5702 5700 5698 5697 5695 5693 5692 5691 5690 5689 5688 5687 5686 5685 5683 5682 5681 5679 5678 5676 5674 5672 5670 5668 5665 5662 5660 5657 5654 5652 5650 5648 5646
5727 5724 5722 5720 5718 5716 5714 5712 5710 5708 5706 5704 5703 5701 5699 5697 5696 5694 5693 5691 5690 5689 5688 5686 5685 5683 5681 5679 5677 5674 5672 5669 5666 5663 5660 5657 5653 5650 5647 5644 5642 5640 5638
5730 5728 5726 5724 5722 5720 5718 5716 5715 5713 5711 5709 5707 5705 5703 5702 5700 5698 5697 5695 5694 5692 5690 5688 5687 5684 5682 5679 5677 5674 5671 5667 5664 5660 5656 5652 5648 5644 5640 5637 5634 5632 5629
5733 5731 5729 5728 5726 5724 5722 5721 5719 5717 5716 5714 5712 5710 5708 5706 5704 5703 5701 5699 5697 5695 5693 5691 5688 5686 5683 5680 5677 5674 5670 5666 5662 5657 5653 5648 5643 5638 5634 5630 5627 5624 5622